CW0214 Weather Reports


time (UTC)temp
C
wind
direction
speed
KPH
gust
KPH
rain 1hr
cm
rain 24hr
cm
rain mn
cm
humidity
%
barometer
mb
20200220084915 8 81 4.8 14.5 0.00 0.00 0.00 80 1022.9
20200220084415 8 77 8.0 19.3 0.00 0.00 0.00 81 1022.9
20200220083915 8 72 9.7 14.5 0.00 0.00 0.00 81 1022.8
20200220083416 8 68 8.0 12.9 0.00 0.00 0.00 81 1022.8
20200220082915 7 71 6.4 11.3 0.00 0.00 0.00 82 1022.9
20200220082415 7 74 6.4 12.9 0.00 0.00 0.00 83 1022.9
20200220081915 7 65 3.2 4.8 0.00 0.00 0.00 83 1022.9
20200220081415 7 75 1.6 4.8 0.00 0.00 0.00 84 1022.8
20200220080915 7 70 3.2 4.8 0.00 0.00 0.00 83 1022.8
20200220080415 7 71 3.2 8.0 0.00 0.00 0.00 83 1022.7
20200220075915 7 89 3.2 9.7 0.00 0.00 0.00 83 1022.6
20200220075416 7 77 1.6 8.0 0.00 0.00 0.00 83 1022.5
20200220074915 7 71 3.2 8.0 0.00 0.00 0.00 83 1022.4
20200220074415 7 67 3.2 4.8 0.00 0.00 0.00 84 1022.4
20200220073915 7 67 3.2 9.7 0.00 0.00 0.00 83 1022.4
20200220073415 7 75 1.6 4.8 0.00 0.00 0.00 83 1022.4
20200220072915 7 86 1.6 8.0 0.00 0.00 0.00 84 1022.4
20200220072415 7 70 1.6 4.8 0.00 0.00 0.00 85 1022.3
20200220071916 7 71 1.6 4.8 0.00 0.00 0.00 85 1022.4
20200220071415 7 71 1.6 4.8 0.00 0.00 0.00 85 1022.4
20200220070915 7 72 1.6 3.2 0.00 0.00 0.00 84 1022.4
20200220070416 7 76 1.6 4.8 0.00 0.00 0.00 84 1022.4
20200220065916 7 74 1.6 4.8 0.00 0.00 0.00 84 1022.3
20200220065415 7 71 1.6 4.8 0.00 0.00 0.00 84 1022.3
20200220064915 7 71 1.6 4.8 0.00 0.00 0.00 83 1022.3
20200220064415 7 67 1.6 4.8 0.00 0.00 0.00 82 1022.3
20200220063914 7 96 1.6 3.2 0.00 0.00 0.00 82 1022.3
20200220063415 7 74 1.6 4.8 0.00 0.00 0.00 82 1022.3
20200220062915 7 81 1.6 8.0 0.00 0.00 0.00 83 1022.3
20200220062415 7 84 3.2 8.0 0.00 0.00 0.00 83 1022.3
20200220061915 7 95 1.6 4.8 0.00 0.00 0.00 83 1022.3
20200220061415 7 82 3.2 8.0 0.00 0.00 0.00 83 1022.3
20200220060915 7 98 3.2 8.0 0.00 0.00 0.00 83 1022.3
20200220060415 7 81 1.6 8.0 0.00 0.00 0.00 83 1022.3
20200220055915 7 83 3.2 8.0 0.00 0.00 0.00 82 1022.3
20200220055415 7 86 1.6 8.0 0.00 0.00 0.00 82 1022.3
20200220054915 7 96 3.2 8.0 0.00 0.00 0.00 82 1022.3
20200220054415 7 70 3.2 9.7 0.00 0.00 0.00 82 1022.3
20200220053915 7 62 1.6 8.0 0.00 0.00 0.00 82 1022.4
20200220053415 7 86 1.6 4.8 0.00 0.00 0.00 82 1022.5
20200220052915 7 78 1.6 8.0 0.00 0.00 0.00 82 1022.5
20200220052415 7 97 1.6 8.0 0.00 0.00 0.00 82 1022.5
20200220051916 8 91 1.6 4.8 0.00 0.00 0.00 82 1022.4
20200220051415 8 74 4.8 9.7 0.00 0.00 0.00 81 1022.4
20200220050915 8 85 3.2 8.0 0.00 0.00 0.00 81 1022.5
20200220050415 8 77 1.6 8.0 0.00 0.00 0.00 81 1022.5
20200220045915 8 81 4.8 8.0 0.00 0.00 0.00 82 1022.6
20200220045415 7 82 4.8 9.7 0.00 0.00 0.00 82 1022.6
20200220044915 7 67 4.8 9.7 0.00 0.00 0.00 82 1022.7
20200220044415 8 75 3.2 9.7 0.00 0.00 0.00 82 1022.7
20200220043915 8 81 1.6 9.7 0.00 0.00 0.00 81 1022.7
20200220043415 8 83 3.2 11.3 0.00 0.00 0.00 81 1022.7
20200220042915 8 64 3.2 9.7 0.00 0.00 0.00 81 1022.7
20200220042415 8 83 4.8 11.3 0.00 0.00 0.00 81 1022.8
20200220041916 8 72 3.2 9.7 0.00 0.00 0.00 81 1022.8
20200220041415 8 81 1.6 9.7 0.00 0.00 0.00 81 1022.8
20200220040915 8 76 3.2 9.7 0.00 0.00 0.00 81 1022.8
20200220040415 8 77 3.2 11.3 0.00 0.00 0.00 81 1022.8
20200220035915 8 68 1.6 8.0 0.00 0.00 0.00 81 1022.7
20200220035415 8 80 3.2 8.0 0.00 0.00 0.00 81 1022.7
20200220034915 8 86 1.6 8.0 0.00 0.00 0.00 81 1022.8
20200220034415 8 64 3.2 8.0 0.00 0.00 0.00 81 1022.8
20200220033915 8 69 3.2 8.0 0.00 0.00 0.00 81 1022.9
20200220033415 8 70 1.6 8.0 0.00 0.00 0.00 82 1023.0
20200220032915 8 86 1.6 4.8 0.00 0.00 0.00 81 1023.1
20200220032415 8 69 1.6 4.8 0.00 0.00 0.00 81 1023.1
20200220031915 8 79 1.6 4.8 0.00 0.00 0.00 81 1023.1
20200220031415 8 72 1.6 4.8 0.00 0.00 0.00 81 1023.1
20200220030915 8 58 0.0 4.8 0.00 0.00 0.00 82 1023.1
20200220030415 8 59 1.6 4.8 0.00 0.00 0.00 82 1023.2
20200220025915 8 61 0.0 3.2 0.00 0.00 0.00 82 1023.2
20200220025415 8 59 0.0 3.2 0.00 0.00 0.00 81 1023.2
20200220024915 8 70 1.6 4.8 0.00 0.00 0.00 80 1023.2
20200220024415 8 71 1.6 4.8 0.00 0.00 0.00 80 1023.2
20200220023915 8 69 1.6 8.0 0.00 0.00 0.00 79 1023.3
20200220023415 9 76 3.2 8.0 0.00 0.00 0.00 79 1023.4
20200220022915 9 86 1.6 4.8 0.00 0.00 0.00 80 1023.4
20200220022415 8 67 1.6 4.8 0.00 0.00 0.00 80 1023.5
20200220021915 8 54 1.6 8.0 0.00 0.00 0.00 81 1023.6
20200220021415 8 71 4.8 9.7 0.00 0.00 0.00 81 1023.6
20200220020916 8 66 6.4 11.3 0.00 0.00 0.00 82 1023.7
20200220020415 8 62 3.2 9.7 0.00 0.00 0.00 82 1023.7
20200220015915 8 54 1.6 8.0 0.00 0.00 0.00 82 1023.7
20200220015415 8 74 1.6 4.8 0.00 0.00 0.00 82 1023.8
20200220014915 8 62 3.2 8.0 0.00 0.00 0.00 82 1023.8
20200220014415 8 57 1.6 4.8 0.00 0.00 0.00 82 1023.8
20200220013915 8 61 3.2 4.8 0.00 0.00 0.00 81 1023.9
20200220013415 9 73 3.2 9.7 0.00 0.00 0.00 80 1023.9
20200220012915 9 60 3.2 8.0 0.00 0.00 0.00 80 1023.8
20200220012415 9 75 1.6 4.8 0.00 0.00 0.00 80 1023.8
20200220011915 9 82 1.6 11.3 0.00 0.00 0.00 79 1023.8
20200220011415 9 78 3.2 11.3 0.00 0.00 0.00 80 1023.8
20200220010916 9 72 1.6 4.8 0.00 0.00 0.00 80 1023.8
20200220010416 9 87 1.6 3.2 0.00 0.00 0.00 81 1024.0
20200220005915 9 106 0.0 3.2 0.00 0.00 0.00 81 1024.1
20200220005415 9 108 1.6 3.2 0.00 0.00 0.00 81 1024.2
20200220004915 9 81 1.6 3.2 0.00 0.00 0.00 81 1024.3
20200220004415 9 82 1.6 4.8 0.00 0.00 0.00 81 1024.3
20200220003915 9 81 1.6 4.8 0.00 0.00 0.00 81 1024.3
20200220003415 9 86 0.0 3.2 0.00 0.00 0.00 80 1024.3
20200220002915 9 17 0.0 0.0 0.00 0.00 0.00 80 1024.3
20200220002415 10 17 0.0 0.0 0.00 0.00 0.00 80 1024.3
20200220001915 10 17 0.0 0.0 0.00 0.00 0.00 80 1024.3
20200220001416 10 17 0.0 0.0 0.00 0.00 0.00 79 1024.4
20200220000915 10 17 0.0 0.0 0.00 0.00 0.00 79 1024.5
20200220000415 10 17 0.0 0.0 0.00 0.00 0.00 78 1024.5
20200219235915 10 17 0.0 0.0 0.00 0.00 0.00 77 1024.7
20200219235415 10 17 0.0 0.0 0.00 0.00 0.00 77 1024.7
20200219234916 10 17 0.0 0.0 0.00 0.00 0.00 76 1024.8
20200219234415 10 17 0.0 0.0 0.00 0.00 0.00 76 1024.8
20200219233915 10 17 0.0 0.0 0.00 0.00 0.00 74 1024.8
20200219233415 11 17 0.0 0.0 0.00 0.00 0.00 75 1024.8
20200219232915 11 17 0.0 0.0 0.00 0.00 0.00 74 1024.8
20200219232415 11 17 0.0 0.0 0.00 0.00 0.00 74 1024.8
20200219231915 11 17 0.0 0.0 0.00 0.00 0.00 74 1024.9
20200219231416 11 17 0.0 0.0 0.00 0.00 0.00 74 1024.9
20200219230915 11 17 0.0 0.0 0.00 0.00 0.00 74 1025.0
20200219230415 11 17 0.0 0.0 0.00 0.00 0.00 74 1025.1
20200219225915 11 17 0.0 0.0 0.00 0.00 0.00 74 1025.1
20200219225415 11 17 0.0 0.0 0.00 0.00 0.00 72 1025.1
20200219224916 11 17 0.0 0.0 0.00 0.00 0.00 72 1025.2
20200219224416 11 17 0.0 0.0 0.00 0.00 0.00 71 1025.2
20200219223915 12 17 0.0 0.0 0.00 0.00 0.00 69 1025.2
20200219223416 12 17 0.0 0.0 0.00 0.00 0.00 67 1025.2
20200219222916 12 17 0.0 1.6 0.00 0.00 0.00 66 1025.2
20200219222415 12 17 0.0 1.6 0.00 0.00 0.00 66 1025.2
20200219221915 12 17 0.0 1.6 0.00 0.00 0.00 66 1025.2
20200219221415 12 17 1.6 4.8 0.00 0.00 0.00 66 1025.2
20200219220915 13 13 1.6 3.2 0.00 0.00 0.00 66 1025.2
20200219220415 13 15 0.0 8.0 0.00 0.00 0.00 65 1025.3
20200219215915 13 11 4.8 9.7 0.00 0.00 0.00 66 1025.2
20200219215416 13 4 1.6 3.2 0.00 0.00 0.00 66 1025.3
20200219214915 13 4 0.0 3.2 0.00 0.00 0.00 66 1025.4
20200219214415 12 3 1.6 8.0 0.00 0.00 0.00 67 1025.3
20200219213915 13 0 1.6 3.2 0.00 0.00 0.00 68 1025.4
20200219213416 13 0 1.6 4.8 0.00 0.00 0.00 67 1025.4
20200219212915 13 0 1.6 3.2 0.00 0.00 0.00 67 1025.4
20200219212415 13 0 0.0 1.6 0.00 0.00 0.00 67 1025.5
20200219211915 13 0 0.0 1.6 0.00 0.00 0.00 66 1025.5
20200219211416 13 0 0.0 1.6 0.00 0.00 0.00 66 1025.5
20200219210916 13 0 0.0 0.0 0.00 0.00 0.00 66 1025.5
20200219210415 13 0 0.0 1.6 0.00 0.00 0.00 65 1025.5
20200219205915 13 0 0.0 1.6 0.00 0.00 0.00 64 1025.7
20200219205415 13 0 0.0 1.6 0.00 0.00 0.00 63 1025.7
20200219204915 13 0 0.0 1.6 0.00 0.00 0.00 62 1025.7
20200219204416 13 0 0.0 1.6 0.00 0.00 0.00 62 1025.6
20200219203915 14 0 0.0 0.0 0.00 0.00 0.00 61 1025.6
20200219203415 14 0 0.0 0.0 0.00 0.00 0.00 61 1025.6
20200219202916 14 0 0.0 0.0 0.00 0.00 0.00 60 1025.6
20200219202415 14 0 0.0 1.6 0.00 0.00 0.00 59 1025.7
20200219201915 15 0 1.6 3.2 0.00 0.00 0.00 60 1025.6
20200219201415 15 0 1.6 3.2 0.00 0.00 0.00 59 1025.6
20200219200916 15 0 1.6 3.2 0.00 0.00 0.00 59 1025.5
20200219200415 15 0 1.6 3.2 0.00 0.00 0.00 58 1025.5
20200219195916 15 0 1.6 4.8 0.00 0.00 0.00 58 1025.6
20200219195415 15 0 1.6 3.2 0.00 0.00 0.00 57 1025.6
20200219194915 15 0 0.0 3.2 0.00 0.00 0.00 57 1025.7
20200219194416 15 0 0.0 3.2 0.00 0.00 0.00 56 1025.7
20200219193916 15 0 1.6 3.2 0.00 0.00 0.00 56 1025.8
20200219193415 15 0 0.0 3.2 0.00 0.00 0.00 56 1025.8
20200219192916 15 0 1.6 4.8 0.00 0.00 0.00 56 1025.9
20200219192415 15 0 1.6 4.8 0.00 0.00 0.00 56 1025.9
20200219191916 15 357 1.6 4.8 0.00 0.00 0.00 56 1025.9
20200219191416 15 355 1.6 4.8 0.00 0.00 0.00 56 1025.9
20200219190916 16 0 1.6 4.8 0.00 0.00 0.00 56 1025.9
20200219190415 16 3 1.6 3.2 0.00 0.00 0.00 55 1025.9
20200219185916 16 11 1.6 3.2 0.00 0.00 0.00 55 1026.0
20200219185415 16 13 1.6 4.8 0.00 0.00 0.00 54 1026.0
20200219184915 16 14 1.6 3.2 0.00 0.00 0.00 53 1025.9
20200219184416 16 17 1.6 4.8 0.00 0.00 0.00 53 1025.9
20200219183915 16 333 1.6 3.2 0.00 0.00 0.00 53 1025.9
20200219183416 16 13 1.6 4.8 0.00 0.00 0.00 53 1025.9
20200219182915 17 10 1.6 4.8 0.00 0.00 0.00 53 1025.9
20200219182415 17 3 0.0 3.2 0.00 0.00 0.00 52 1025.9
20200219181916 17 24 0.0 1.6 0.00 0.00 0.00 52 1025.9
20200219181415 17 57 0.0 3.2 0.00 0.00 0.00 51 1025.9
20200219180916 17 78 0.0 3.2 0.00 0.00 0.00 51 1025.9
20200219180416 17 95 0.0 0.0 0.00 0.00 0.00 51 1025.8
20200219175915 17 95 0.0 0.0 0.00 0.00 0.00 51 1025.8
20200219175416 17 67 0.0 3.2 0.00 0.00 0.00 51 1025.8
20200219174915 17 81 0.0 0.0 0.00 0.00 0.00 50 1025.8
20200219174416 17 80 0.0 0.0 0.00 0.00 0.00 50 1025.8
20200219173915 17 3 1.6 4.8 0.00 0.00 0.00 50 1025.8
20200219173416 17 113 1.6 4.8 0.00 0.00 0.00 50 1025.9
20200219172915 17 342 0.0 4.8 0.00 0.00 0.00 50 1025.8
20200219172415 17 9 1.6 8.0 0.00 0.00 0.00 50 1025.8
20200219171916 17 103 0.0 3.2 0.00 0.00 0.00 50 1025.8
20200219171416 17 103 3.2 4.8 0.00 0.00 0.00 49 1025.9
20200219170916 17 106 0.0 4.8 0.00 0.00 0.00 48 1025.9
20200219170416 17 63 1.6 8.0 0.00 0.00 0.00 48 1025.9
20200219165916 17 103 1.6 4.8 0.00 0.00 0.00 49 1025.9
20200219165415 17 138 0.0 8.0 0.00 0.00 0.00 48 1025.9
20200219164916 17 82 1.6 8.0 0.00 0.00 0.00 48 1025.9
20200219164416 17 127 1.6 9.7 0.00 0.00 0.00 48 1025.9
20200219163916 17 74 3.2 11.3 0.00 0.00 0.00 48 1025.9
20200219163415 17 92 4.8 11.3 0.00 0.00 0.00 47 1025.9
20200219162916 17 99 1.6 11.3 0.00 0.00 0.00 47 1025.9
20200219162415 17 119 1.6 8.0 0.00 0.00 0.00 47 1026.0
20200219161916 17 138 3.2 9.7 0.00 0.00 0.00 48 1026.0
20200219161415 17 98 8.0 14.5 0.00 0.00 0.00 46 1025.9
20200219160916 17 126 3.2 9.7 0.00 0.00 0.00 47 1026.0
20200219160417 17 63 1.6 8.0 0.00 0.00 0.00 47 1026.1
20200219155915 18 68 8.0 11.3 0.00 0.00 0.00 46 1026.1
20200219155415 18 124 3.2 11.3 0.00 0.00 0.00 46 1026.2
20200219154915 18 141 3.2 11.3 0.00 0.00 0.00 46 1026.2
20200219154416 18 150 3.2 9.7 0.00 0.00 0.00 45 1026.3
20200219153916 18 19 3.2 12.9 0.00 0.00 0.00 45 1026.4
20200219153415 18 40 3.2 9.7 0.00 0.00 0.00 45 1026.4
20200219152915 18 62 1.6 11.3 0.00 0.00 0.00 46 1026.4
20200219152415 18 89 1.6 11.3 0.00 0.00 0.00 44 1026.5
20200219151916 18 132 3.2 19.3 0.00 0.00 0.00 45 1026.5
20200219151417 18 37 11.3 19.3 0.00 0.00 0.00 45 1026.6
20200219150916 18 55 4.8 16.1 0.00 0.00 0.00 45 1026.6
20200219150416 18 64 9.7 19.3 0.00 0.00 0.00 44 1026.7
20200219145915 18 252 0.0 12.9 0.00 0.00 0.00 44 1026.7
20200219145416 18 73 3.2 14.5 0.00 0.00 0.00 46 1026.8
20200219144916 18 5 3.2 14.5 0.00 0.00 0.00 46 1026.9
20200219144416 18 39 4.8 19.3 0.00 0.00 0.00 47 1026.9
20200219143916 18 41 0.0 16.1 0.00 0.00 0.00 48 1027.0
20200219143416 17 82 4.8 20.9 0.00 0.00 0.00 49 1027.0
20200219142917 18 110 3.2 14.5 0.00 0.00 0.00 48 1027.1
20200219142415 18 120 3.2 19.3 0.00 0.00 0.00 48 1027.2
20200219141916 18 93 6.4 19.3 0.00 0.00 0.00 47 1027.4
20200219141415 18 106 4.8 16.1 0.00 0.00 0.00 47 1027.5
20200219140916 18 8 3.2 8.0 0.00 0.00 0.00 48 1027.5
20200219140415 18 85 3.2 11.3 0.00 0.00 0.00 50 1027.5
20200219135916 17 28 6.4 19.3 0.00 0.00 0.00 49 1027.5
20200219135416 17 113 9.7 16.1 0.00 0.00 0.00 49 1027.6
20200219134916 18 100 9.7 16.1 0.00 0.00 0.00 47 1027.8
20200219134415 18 38 0.0 11.3 0.00 0.00 0.00 49 1027.9
20200219133915 17 89 1.6 11.3 0.00 0.00 0.00 49 1028.0
20200219133415 17 105 3.2 11.3 0.00 0.00 0.00 50 1028.1
20200219132915 17 20 8.0 16.1 0.00 0.00 0.00 51 1028.2
20200219132415 17 109 11.3 19.3 0.00 0.00 0.00 52 1028.2
20200219131916 17 110 8.0 19.3 0.00 0.00 0.00 51 1028.1
20200219131415 17 309 4.8 19.3 0.00 0.00 0.00 52 1028.4
20200219130915 17 35 3.2 14.5 0.00 0.00 0.00 53 1028.5
20200219130415 16 118 6.4 19.3 0.00 0.00 0.00 53 1028.6
20200219125916 16 96 11.3 29.0 0.00 0.00 0.00 52 1028.6
20200219125416 16 91 9.7 20.9 0.00 0.00 0.00 53 1028.7
20200219124916 16 93 11.3 22.5 0.00 0.00 0.00 53 1028.9
20200219124416 16 96 9.7 32.2 0.00 0.00 0.00 53 1029.0
20200219123916 16 94 9.7 24.1 0.00 0.00 0.00 54 1029.0
20200219123416 16 116 14.5 29.0 0.00 0.00 0.00 53 1029.1
20200219122916 16 101 11.3 25.7 0.00 0.00 0.00 53 1029.1
20200219122417 16 71 9.7 19.3 0.00 0.00 0.00 53 1029.2
20200219121916 16 113 12.9 19.3 0.00 0.00 0.00 54 1029.5
20200219121416 16 121 8.0 14.5 0.00 0.00 0.00 54 1029.6
20200219120916 16 118 6.4 14.5 0.00 0.00 0.00 54 1029.7
20200219120416 15 97 8.0 16.1 0.00 0.00 0.00 54 1029.9
20200219115916 15 90 9.7 22.5 0.00 0.00 0.00 54 1030.0
20200219115416 15 104 9.7 20.9 0.00 0.00 0.00 54 1030.1
20200219114918 15 110 6.4 16.1 0.00 0.00 0.00 54 1030.1
20200219114416 15 120 6.4 16.1 0.00 0.00 0.00 55 1030.1
20200219113916 15 90 4.8 12.9 0.00 0.00 0.00 54 1030.1
20200219113415 15 94 6.4 19.3 0.00 0.00 0.00 54 1030.2
20200219112916 15 68 8.0 20.9 0.00 0.00 0.00 54 1030.5
20200219112416 15 80 8.0 19.3 0.00 0.00 0.00 54 1030.3
20200219111916 15 107 8.0 19.3 0.00 0.00 0.00 54 1030.4
20200219111415 14 129 8.0 19.3 0.00 0.00 0.00 56 1030.5
20200219110916 14 117 9.7 19.3 0.00 0.00 0.00 58 1030.7
20200219110416 13 103 4.8 14.5 0.00 0.00 0.00 59 1030.7
20200219105916 13 102 6.4 14.5 0.00 0.00 0.00 59 1030.7
20200219105416 13 110 4.8 12.9 0.00 0.00 0.00 61 1030.7
20200219104916 13 111 4.8 11.3 0.00 0.00 0.00 63 1030.8
20200219104416 12 76 8.0 19.3 0.00 0.00 0.00 63 1030.8
20200219103916 12 82 4.8 14.5 0.00 0.00 0.00 63 1030.9
20200219103416 12 69 3.2 9.7 0.00 0.00 0.00 63 1030.9
20200219102917 12 69 4.8 9.7 0.00 0.00 0.00 62 1030.9
20200219102415 12 55 1.6 4.8 0.00 0.00 0.00 62 1031.0
20200219101918 12 52 4.8 9.7 0.00 0.00 0.00 61 1031.1
20200219101416 12 23 0.0 3.2 0.00 0.00 0.00 62 1031.2
20200219100916 12 23 0.0 3.2 0.00 0.00 0.00 63 1031.1
20200219100416 12 23 0.0 0.0 0.00 0.00 0.00 63 1031.2
20200219095915 11 23 0.0 0.0 0.00 0.00 0.00 63 1031.2
20200219095416 11 23 0.0 0.0 0.00 0.00 0.00 61 1031.3
20200219094916 11 23 0.0 0.0 0.00 0.00 0.00 60 1031.3
20200219094416 11 23 0.0 0.0 0.00 0.00 0.00 62 1031.3
20200219093916 10 23 0.0 0.0 0.00 0.00 0.00 64 1031.3
20200219093416 10 23 0.0 0.0 0.00 0.00 0.00 67 1031.2
20200219092916 10 23 0.0 0.0 0.00 0.00 0.00 72 1031.1
20200219092416 10 23 0.0 0.0 0.00 0.00 0.00 71 1031.0
20200219091416 9 23 0.0 0.0 0.00 0.00 0.00 69 1030.9
20200219090916 8 23 0.0 0.0 0.00 0.00 0.00 71 1030.9
20200219090416 8 23 0.0 0.0 0.00 0.00 0.00 72 1030.9
20200219085916 8 23 0.0 1.6 0.00 0.00 0.00 74 1030.9
20200219085416 7 23 1.6 4.8 0.00 0.00 0.00 75 1030.9